Location: Clanezzo
(45.7500°N, 9.6000°E)
Time: 23:37:31
(UTC+00:00)

USA 308 - Pass Details

Date: 26 September 2021
Orbit: 566 x 573 km, 54.0° (Epoch: 23 September)

Event Time Altitude Azimuth Distance (km) Brightness Sun altitude
Rises 17:44:19 0° 294° (WNW) 2,769 8.0 -6.6°
Reaches altitude 10° 17:46:51 10° 307° (NW) 1,872 6.6 -7.0°
Maximum altitude 17:50:31 27° 6° (N) 1,106 4.4 -7.7°
Drops below altitude 10° 17:54:11 10° 65° (ENE) 1,874 5.0 -8.3°
Enters shadow 17:54:40 - 69° (ENE) 2,038 5.2 -8.4°
